Temperature
6 6 5 5 4 5 4 3 2 2 1 1 -0 0 0 -1 -2 -3 -4 -5 -6 -7 -8 -8 -8 -8 -9 -9 -9 -9 -9 -9 -9 -9 -8 -8 -7 -7 -7 -6 -6 -6 -5 -5
4 4 4 3 3 3 3 3 2 1 1 1 1 0 -0 -2 -4 -4 -5 -6 -7 -8 -9 -9 -10 -10 -10 -10 -10 -10 -10 -9 -9 -9 -9 -9 -8 -8 -8 -7 -7 -7 -6 -6
2 2 3 1 2 3 3 2 2 0 0 1 -0 -0 -1 -3 -4 -5 -6 -7 -8 -9 -9 -10 -10 -11 -11 -10 -10 -10 -10 -10 -10 -10 -9 -9 -9 -9 -9 -8 -8 -8 -8 -7
1 1 2 2 3 3 3 2 2 1 0 0 -0 -1 -1 -4 -4 -5 -7 -8 -8 -9 -10 -10 -11 -11 -11 -10 -10 -10 -10 -10 -10 -10 -10 -10 -10 -10 -9 -9 -9 -9 -8 -8
-1 1 0 2 3 3 2 1 2 1 0 -0 -1 -1 -2 -4 -5 -6 -7 -8 -9 -10 -10 -11 -11 -11 -11 -11 -11 -10 -11 -11 -11 -11 -11 -11 -10 -10 -10 -10 -9 -9 -9 -9
-1 1 1 2 3 4 2 0 1 1 -1 -2 -3 -3 -3 -4 -6 -7 -8 -9 -9 -10 -10 -11 -11 -11 -11 -11 -11 -12 -12 -12 -12 -12 -12 -12 -11 -11 -11 -11 -10 -10 -9 -9
-0 -1 -1 2 3 2 -0 -0 2 1 -1 -2 -4 -4 -4 -6 -7 -8 -8 -9 -9 -10 -11 -11 -11 -11 -12 -12 -12 -12 -12 -12 -12 -13 -13 -13 -12 -12 -11 -11 -11 -11 -10 -10
-1 -2 -1 3 3 1 1 2 1 -0 -1 -3 -4 -5 -6 -7 -8 -8 -9 -9 -9 -10 -11 -11 -12 -12 -12 -13 -13 -13 -13 -13 -13 -13 -13 -13 -13 -13 -12 -12 -12 -11 -11 -11
-1 -0 2 3 2 2 1 1 0 -1 -2 -3 -4 -6 -7 -8 -8 -9 -9 -10 -10 -11 -11 -11 -12 -13 -13 -13 -13 -13 -13 -14 -14 -14 -14 -14 -14 -14 -13 -13 -12 -12 -12 -12
0 0 2 2 2 2 1 1 -0 -1 -2 -4 -5 -7 -7 -8 -9 -9 -10 -10 -11 -11 -11 -12 -12 -13 -13 -14 -14 -14 -14 -14 -14 -15 -14 -14 -14 -14 -14 -14 -13 -13 -13 -12
-0 1 2 2 2 1 1 -0 -1 -2 -3 -5 -6 -7 -8 -9 -9 -10 -10 -11 -11 -11 -12 -12 -13 -13 -14 -14 -14 -14 -14 -14 -15 -15 -15 -15 -15 -15 -15 -14 -14 -13 -14 -13
-1 1 1 2 1 1 -0 -1 -2 -3 -5 -6 -7 -8 -8 -9 -9 -10 -10 -11 -11 -11 -12 -12 -13 -13 -14 -14 -14 -14 -14 -15 -15 -15 -15 -15 -15 -15 -15 -15 -14 -14 -14 -14
2 2 1 1 1 -0 -1 -2 -3 -4 -6 -7 -8 -8 -9 -9 -10 -10 -10 -11 -11 -12 -12 -12 -13 -13 -14 -14 -14 -14 -14 -14 -15 -15 -15 -15 -15 -15 -15 -15 -15 -15 -15 -14
2 2 1 0 -0 -1 -2 -3 -4 -5 -7 -8 -8 -8 -9 -9 -10 -10 -11 -11 -11 -12 -12 -12 -13 -13 -13 -14 -14 -14 -14 -14 -15 -14 -15 -15 -15 -15 -15 -15 -15 -15 -15 -15
1 1 0 -0 -1 -2 -3 -4 -5 -6 -7 -8 -8 -9 -9 -9 -10 -10 -11 -11 -11 -11 -12 -12 -12 -13 -13 -14 -14 -14 -14 -14 -14 -14 -14 -14 -15 -15 -15 -15 -15 -15 -15 -15
1 1 0 -0 -2 -3 -4 -5 -6 -7 -7 -8 -8 -9 -9 -10 -10 -10 -11 -11 -11 -11 -12 -12 -12 -13 -13 -14 -14 -13 -13 -14 -14 -14 -14 -14 -15 -15 -15 -15 -15 -15 -15 -15
1 1 0 -1 -2 -3 -4 -5 -6 -7 -8 -8 -9 -9 -10 -10 -10 -10 -10 -10 -11 -11 -12 -12 -12 -12 -13 -13 -13 -13 -13 -13 -14 -14 -14 -15 -15 -15 -15 -15 -15 -15 -15 -15
0 0 -1 -2 -3 -4 -5 -6 -7 -8 -8 -8 -9 -9 -9 -10 -10 -10 -10 -10 -10 -10 -11 -11 -11 -12 -13 -12 -12 -13 -13 -13 -14 -14 -15 -15 -15 -15 -15 -16 -16 -16 -16 -15
-0 -1 -1 -2 -3 -4 -5 -6 -7 -8 -8 -9 -9 -9 -10 -10 -10 -10 -10 -10 -10 -10 -10 -10 -11 -12 -11 -11 -12 -12 -13 -13 -13 -14 -15 -15 -15 -15 -16 -16 -16 -16 -16 -16
-0 -1 -2 -3 -4 -5 -6 -7 -7 -8 -8 -9 -9 -9 -9 -9 -9 -9 -9 -9 -10 -10 -10 -11 -11 -10 -10 -11 -12 -11 -11 -12 -13 -13 -14 -15 -15 -15 -15 -15 -15 -15 -16 -16
-1 -2 -3 -4 -4 -5 -6 -7 -8 -8 -9 -9 -9 -9 -9 -9 -9 -9 -9 -9 -9 -9 -10 -10 -10 -10 -11 -11 -10 -10 -11 -12 -13 -13 -14 -15 -15 -15 -15 -15 -15 -15 -15 -15
-2 -3 -3 -4 -5 -6 -7 -7 -8 -8 -9 -9 -9 -9 -9 -9 -8 -9 -9 -9 -9 -9 -9 -9 -9 -10 -11 -10 -9 -10 -11 -12 -12 -13 -14 -14 -14 -15 -15 -15 -15 -15 -15 -15
-3 -3 -4 -5 -5 -6 -7 -8 -8 -8 -9 -9 -9 -9 -9 -9 -9 -9 -8 -9 -8 -9 -9 -9 -9 -10 -9 -9 -9 -10 -11 -12 -12 -13 -14 -14 -14 -15 -15 -15 -15 -15 -15 -15
-3 -4 -4 -5 -6 -7 -7 -8 -8 -8 -9 -9 -9 -8 -8 -8 -8 -9 -9 -8 -8 -8 -8 -9 -9 -9 -9 -9 -9 -10 -11 -11 -12 -13 -13 -13 -14 -14 -15 -15 -15 -15 -15 -15
-4 -4 -5 -5 -6 -7 -7 -8 -8 -8 -9 -9 -8 -8 -9 -9 -8 -8 -8 -8 -8 -8 -8 -8 -9 -9 -9 -9 -9 -10 -10 -11 -12 -12 -12 -13 -13 -13 -14 -14 -15 -15 -15 -15
-4 -4 -5 -6 -6 -7 -7 -8 -8 -8 -8 -8 -8 -8 -9 -8 -8 -8 -8 -8 -8 -8 -8 -8 -8 -9 -9 -9 -9 -9 -10 -10 -11 -12 -12 -12 -12 -12 -13 -13 -14 -14 -15 -15
-4 -5 -5 -6 -6 -7 -8 -8 -8 -8 -8 -8 -8 -8 -8 -8 -8 -8 -7 -7 -7 -7 -8 -8 -8 -8 -9 -9 -9 -9 -9 -10 -10 -11 -11 -12 -12 -12 -12 -13 -13 -13 -14 -14
Wind_Speed
4 2 2 3 5 3 4 3 1 5 6 6 10 10 11 10 9 12 14 16 16 15 15 15 16 16 16 16 16 16 16 15 14 14 14 14 15 15 14 14 13 13 13 14
4 5 4 5 8 6 5 3 2 4 5 6 10 8 10 7 10 13 14 15 15 15 16 16 16 16 16 16 16 15 15 15 14 14 13 13 14 14 14 13 12 11 11 12
4 6 4 4 4 4 2 1 1 3 7 10 10 13 13 7 10 13 14 13 13 14 14 13 13 14 14 14 14 14 14 15 15 14 14 13 14 14 13 12 11 10 10 9
2 6 2 4 3 1 2 2 2 5 8 9 9 12 5 4 8 10 11 11 11 11 12 10 10 12 12 12 12 13 13 14 15 14 14 13 13 13 12 10 10 9 8 8
3 2 6 3 4 4 3 4 2 5 9 9 10 7 1 5 7 7 8 8 8 8 9 10 11 12 11 11 11 12 14 15 15 15 14 13 13 13 10 9 9 10 10 9
3 1 5 4 6 4 0 4 4 5 7 8 10 11 5 8 9 7 7 7 8 8 8 10 11 11 10 10 12 13 14 14 14 14 14 12 13 12 10 9 9 10 11 11
4 4 7 5 5 3 3 6 7 5 5 6 5 6 10 10 8 6 7 8 8 8 8 9 11 10 9 9 12 14 14 14 14 13 13 11 11 10 11 10 9 9 9 9
4 3 7 5 1 2 5 5 4 3 4 5 8 8 9 8 7 7 8 9 9 8 9 9 9 9 9 10 12 13 13 14 13 12 12 13 11 10 10 10 9 8 7 7
8 7 5 2 3 3 4 3 3 3 4 5 6 6 7 6 6 6 7 8 7 8 9 9 9 8 9 11 12 13 13 13 12 11 11 12 11 9 9 9 9 9 6 6
3 4 3 4 3 2 1 2 3 2 3 3 4 5 5 6 7 7 7 7 7 8 9 8 9 9 8 10 12 12 12 12 11 8 10 10 10 10 9 9 10 10 9 9
3 3 1 1 2 2 2 1 1 1 2 2 3 4 4 5 6 6 7 6 7 8 8 8 9 9 11 11 11 10 11 11 11 10 8 8 9 9 11 8 12 11 8 8
6 5 4 4 4 3 2 1 0 1 2 3 4 4 5 5 5 6 7 6 7 8 9 9 9 10 10 11 10 10 11 11 10 8 8 8 7 8 13 15 18 18 17 14
5 5 5 2 2 3 1 2 2 2 3 3 4 4 4 4 5 6 7 7 8 9 9 9 10 11 11 12 12 10 11 12 10 10 9 9 9 8 9 11 15 16 17 17
4 4 2 2 2 2 3 3 4 5 5 5 4 4 4 5 5 7 7 8 8 9 10 9 10 11 12 12 13 12 11 14 13 9 8 8 8 8 8 9 8 8 11 15
5 4 2 0 2 2 2 3 4 4 4 4 4 4 5 6 6 7 7 9 10 9 10 10 12 13 13 13 14 14 13 11 11 10 9 9 9 9 9 9 8 8 7 9
4 4 4 2 1 2 2 3 4 3 3 3 4 5 5 5 6 6 7 9 9 11 11 11 12 14 14 14 15 14 13 21 20 14 11 11 11 11 10 9 9 8 8 7
4 0 2 2 1 2 3 4 4 4 2 3 4 5 5 6 6 8 9 10 9 10 11 11 13 16 16 15 14 13 13 16 23 17 12 12 11 11 10 10 9 9 8 10
6 4 3 2 2 4 5 5 5 4 2 2 3 4 5 6 8 9 11 11 11 11 10 10 14 15 13 14 14 13 13 14 13 13 13 12 12 11 10 10 10 11 9 10
5 5 5 5 5 6 6 5 4 3 2 3 3 4 5 6 7 9 10 10 11 12 12 14 23 16 15 20 21 12 13 14 14 14 13 17 15 11 11 10 10 10 9 9
5 6 7 7 6 6 6 5 5 4 3 2 3 5 6 7 8 9 10 9 7 8 13 17 15 13 15 17 20 12 13 14 15 14 14 13 13 13 12 11 10 9 9 8
6 7 8 7 7 6 6 6 6 4 2 2 3 4 6 8 8 8 8 10 10 13 16 21 15 14 15 18 19 13 13 14 15 15 15 15 14 14 12 11 10 9 8 7
7 8 9 8 8 6 5 5 5 4 2 2 3 5 6 8 9 9 7 6 11 20 16 11 12 18 24 21 12 13 14 15 15 15 15 15 15 14 13 11 8 6 5 4
7 8 9 9 8 7 5 4 4 3 1 2 4 6 6 7 7 7 10 10 11 20 15 10 19 27 27 15 12 14 15 16 15 15 15 15 15 14 13 12 7 4 2 1
7 8 9 8 8 7 5 4 2 1 2 3 5 6 5 6 6 5 7 15 20 21 12 17 26 27 23 13 13 14 14 14 14 14 14 14 13 13 13 12 10 7 5 4
8 8 8 9 8 6 6 5 3 2 2 3 5 5 5 4 5 8 10 11 18 18 12 17 25 25 16 12 14 14 14 14 15 13 12 12 12 11 11 11 10 8 7 6
7 8 7 6 6 6 5 4 3 2 1 2 3 4 5 5 6 7 8 10 12 16 13 10 12 15 12 13 14 15 14 15 14 12 11 10 10 9 9 10 10 8 7 6
8 7 6 5 4 5 5 4 4 3 1 1 3 4 5 6 7 8 9 10 10 11 10 10 10 11 11 13 14 15 14 14 13 11 9 7 7 7 7 7 6 5 5 4
Wind_Direction
272 341 348 357 349 25 87 101 164 293 297 314 322 310 310 321 338 348 350 353 354 353 352 353 353 350 347 345 344 343 341 341 338 337 339 341 342 344 347 349 352 355 357 359
318 14 37 50 22 43 60 53 347 326 300 289 294 294 318 339 350 348 349 350 350 351 351 352 351 346 344 342 341 340 340 338 336 337 339 342 344 346 346 346 346 350 354 358
294 332 53 22 359 29 16 20 338 289 275 293 308 321 322 345 352 348 346 347 350 351 349 348 344 341 338 336 337 340 340 339 339 340 341 341 345 346 343 340 339 339 342 350
322 21 360 239 238 241 271 202 209 262 278 286 290 297 303 29 353 345 347 349 352 350 344 339 334 334 332 333 337 339 341 342 342 342 341 341 345 344 340 337 337 333 330 332
88 339 286 265 272 271 271 253 224 290 299 308 315 307 177 36 8 352 356 357 354 348 335 329 330 331 332 335 339 343 344 343 342 343 341 343 346 343 339 339 343 343 343 340
113 270 264 240 258 283 181 276 264 296 309 320 336 337 327 4 4 4 10 2 354 343 332 332 330 332 333 336 342 344 342 339 339 341 340 341 343 340 339 338 345 351 357 2
167 228 265 252 272 51 83 277 296 311 319 321 315 293 315 345 356 12 11 358 349 337 330 327 327 332 334 336 340 339 338 337 338 340 338 341 338 337 340 342 343 346 351 358
163 207 262 253 124 148 236 257 272 276 279 284 286 301 325 340 349 5 360 350 343 335 330 325 326 333 336 337 335 336 337 337 336 338 344 347 338 337 339 341 340 332 336 346
188 211 227 226 170 198 225 262 263 252 265 278 293 313 329 338 352 358 350 338 331 326 323 322 325 332 333 332 334 338 337 335 332 341 343 343 340 338 339 342 341 337 336 339
218 250 210 174 183 218 239 259 254 248 281 295 304 318 333 343 350 347 336 330 325 327 325 324 326 333 327 327 333 336 335 333 332 339 341 339 343 346 343 343 343 354 357 347
233 270 174 234 323 318 298 278 269 327 329 345 340 345 352 348 342 333 333 324 326 321 319 323 326 327 329 331 330 331 332 332 332 337 329 331 339 340 342 336 345 354 350 345
215 217 189 257 306 332 325 330 126 325 347 37 36 14 360 344 330 322 322 319 321 322 331 327 325 323 322 325 326 326 334 333 330 330 330 330 323 329 337 341 344 349 347 346
180 184 186 233 8 22 88 122 111 66 56 57 46 27 4 335 321 326 328 327 325 328 329 323 323 322 322 324 323 320 321 323 320 324 322 323 325 325 323 327 335 341 344 344
139 126 97 15 359 57 105 108 94 83 75 69 44 19 356 338 329 336 332 324 324 324 323 321 320 320 318 317 318 316 312 313 314 302 300 302 305 307 308 310 314 317 329 335
106 108 127 94 94 105 102 104 92 80 68 48 24 7 351 345 337 329 323 330 330 324 321 320 320 318 317 315 317 315 311 305 301 295 291 294 298 298 296 297 297 299 302 314
123 91 83 73 51 115 103 97 97 85 61 32 10 353 339 330 323 323 327 332 330 321 317 315 314 315 317 315 315 312 306 305 309 303 299 301 299 295 292 289 288 288 287 288
129 67 343 333 0 112 101 97 104 104 79 33 359 345 342 337 336 336 331 325 314 304 304 306 311 313 310 310 309 307 303 303 307 307 303 300 296 290 285 280 278 280 277 281
143 155 172 193 164 133 118 108 108 103 78 34 21 10 357 348 336 323 319 319 319 316 310 309 311 310 310 313 309 304 305 307 310 312 312 310 305 298 291 284 281 280 278 281
124 126 119 108 112 122 127 128 125 113 79 54 35 5 335 323 315 312 315 321 323 325 319 314 320 327 317 318 319 315 321 323 323 320 317 316 316 307 298 290 283 277 273 272
125 121 118 109 106 117 128 136 132 112 83 57 25 357 342 329 321 320 321 314 299 297 304 314 325 325 318 319 331 336 333 328 325 323 322 319 314 309 303 294 286 278 270 264
147 140 134 129 121 120 124 131 129 119 93 55 28 347 324 315 317 321 325 325 321 320 323 332 335 324 324 339 345 339 334 332 330 327 326 323 320 315 308 299 289 279 269 259
155 149 146 142 133 122 115 119 127 128 108 31 352 331 326 326 327 324 306 290 311 327 334 330 328 333 346 350 343 338 336 335 334 332 333 334 335 333 327 319 304 288 275 258
151 150 151 150 145 137 123 121 133 141 138 333 327 323 320 313 314 321 327 323 324 331 339 329 337 345 353 351 342 340 338 338 337 339 343 345 348 349 349 348 351 355 11 356
141 141 139 132 130 136 149 169 178 195 258 293 296 297 302 315 317 293 299 322 334 337 339 338 347 351 355 349 342 341 340 339 340 345 348 352 358 3 8 12 20 30 35 34
135 133 138 145 154 165 168 170 182 240 270 289 297 302 303 297 297 310 318 322 334 343 341 342 349 351 352 343 343 343 341 342 346 349 350 356 2 7 11 17 24 30 31 29
143 151 158 164 161 156 158 165 178 195 221 317 319 319 320 314 305 313 323 328 334 345 345 340 341 346 345 344 344 344 342 341 342 345 349 356 1 6 11 15 18 22 20 17
132 137 141 143 153 162 167 171 169 174 188 287 314 320 325 328 332 335 336 340 342 343 343 343 344 344 344 345 345 345 344 344 343 344 347 351 356 358 1 3 5 2 0 3
Height
1582 1583 1582 1583 1583 1579 1582 1586 1591 1591 1589 1585 1581 1577 1571 1565 1560 1555 1550 1544 1539 1533 1527 1521 1514 1508 1502 1496 1490 1484 1479 1473 1467 1462 1456 1450 1445 1440 1435 1431 1426 1422 1417 1413
1585 1585 1585 1587 1587 1585 1586 1587 1588 1588 1587 1582 1578 1574 1568 1562 1558 1553 1549 1544 1538 1533 1527 1520 1514 1507 1501 1495 1490 1484 1478 1473 1467 1461 1455 1450 1444 1440 1435 1431 1426 1422 1418 1414
1594 1592 1587 1595 1591 1589 1588 1587 1588 1590 1587 1579 1575 1570 1565 1559 1556 1552 1548 1543 1537 1532 1526 1520 1514 1508 1502 1496 1490 1484 1478 1473 1467 1461 1456 1450 1445 1440 1435 1430 1426 1422 1418 1414
1598 1597 1599 1596 1589 1588 1587 1587 1586 1584 1581 1577 1573 1568 1563 1559 1555 1551 1546 1541 1536 1531 1525 1519 1514 1508 1502 1496 1490 1484 1478 1472 1467 1461 1456 1451 1445 1440 1435 1431 1426 1422 1418 1415
1604 1600 1598 1593 1587 1586 1586 1586 1584 1581 1577 1573 1568 1563 1561 1557 1553 1550 1545 1540 1535 1529 1524 1518 1513 1507 1501 1495 1489 1483 1477 1472 1466 1461 1456 1450 1445 1440 1435 1431 1426 1422 1419 1415
1603 1600 1598 1591 1585 1583 1585 1585 1581 1578 1575 1572 1566 1562 1560 1556 1551 1547 1543 1538 1532 1527 1522 1517 1511 1506 1500 1494 1488 1482 1476 1471 1466 1461 1455 1450 1445 1440 1435 1431 1427 1423 1419 1416
1600 1604 1595 1587 1583 1584 1590 1589 1579 1576 1573 1570 1567 1565 1559 1553 1549 1545 1540 1535 1530 1525 1520 1515 1510 1504 1498 1493 1487 1482 1476 1470 1465 1459 1454 1449 1444 1439 1435 1430 1426 1423 1419 1416
1599 1605 1599 1582 1582 1584 1584 1579 1576 1573 1570 1567 1564 1559 1555 1551 1546 1542 1537 1532 1527 1523 1518 1513 1508 1502 1497 1491 1486 1480 1475 1469 1464 1459 1453 1448 1443 1438 1434 1430 1426 1422 1418 1415
1588 1588 1581 1580 1580 1580 1579 1576 1573 1570 1567 1563 1560 1556 1552 1548 1544 1539 1535 1530 1525 1521 1516 1512 1506 1501 1496 1491 1485 1479 1473 1468 1463 1458 1453 1447 1442 1437 1433 1429 1426 1422 1418 1415
1580 1579 1578 1579 1578 1577 1576 1573 1571 1567 1564 1560 1556 1553 1549 1545 1541 1537 1532 1528 1524 1519 1514 1509 1504 1500 1495 1490 1484 1478 1472 1467 1462 1457 1452 1447 1442 1438 1434 1430 1426 1422 1419 1416
1578 1576 1577 1577 1576 1575 1573 1570 1567 1564 1561 1557 1554 1550 1547 1543 1539 1535 1531 1526 1522 1517 1512 1507 1503 1498 1493 1488 1483 1477 1471 1466 1461 1457 1451 1446 1442 1438 1434 1430 1427 1423 1419 1416
1576 1574 1575 1575 1574 1573 1570 1568 1565 1562 1558 1554 1551 1548 1545 1541 1537 1533 1529 1525 1520 1515 1511 1506 1501 1496 1491 1487 1481 1476 1470 1465 1460 1455 1450 1445 1440 1436 1432 1430 1426 1422 1419 1416
1571 1572 1573 1573 1572 1570 1567 1564 1561 1558 1555 1552 1549 1546 1543 1539 1536 1532 1528 1523 1518 1513 1509 1504 1499 1494 1490 1485 1480 1475 1469 1464 1458 1453 1448 1443 1438 1434 1429 1426 1423 1420 1416 1413
1569 1570 1571 1570 1569 1567 1564 1562 1559 1555 1552 1550 1547 1544 1542 1538 1535 1531 1526 1521 1517 1512 1507 1502 1497 1492 1488 1483 1477 1472 1467 1461 1456 1450 1445 1440 1435 1431 1427 1423 1419 1416 1414 1411
1568 1568 1568 1567 1565 1563 1561 1558 1556 1553 1551 1548 1546 1543 1541 1537 1533 1529 1525 1520 1516 1511 1506 1501 1495 1490 1485 1480 1474 1469 1463 1457 1451 1446 1441 1436 1431 1426 1422 1419 1416 1413 1410 1408
1566 1566 1565 1564 1562 1560 1558 1555 1553 1551 1549 1547 1545 1542 1540 1536 1533 1529 1524 1519 1514 1509 1504 1498 1493 1488 1482 1477 1471 1464 1458 1452 1447 1440 1435 1429 1424 1420 1416 1413 1410 1408 1406 1404
1563 1563 1562 1561 1559 1557 1555 1553 1551 1550 1548 1546 1544 1542 1539 1536 1532 1528 1523 1519 1514 1509 1503 1497 1492 1486 1480 1474 1467 1459 1452 1445 1439 1434 1428 1422 1417 1412 1409 1406 1404 1402 1400 1399
1560 1560 1559 1557 1556 1554 1552 1551 1550 1549 1547 1546 1543 1541 1538 1535 1531 1527 1522 1518 1513 1509 1503 1497 1489 1483 1477 1471 1463 1455 1448 1441 1434 1428 1422 1416 1411 1407 1403 1400 1397 1395 1394 1394
1557 1557 1556 1554 1553 1551 1550 1549 1549 1548 1547 1545 1543 1541 1538 1535 1531 1527 1523 1518 1512 1505 1500 1494 1487 1481 1474 1467 1460 1452 1445 1438 1430 1423 1417 1411 1405 1400 1396 1393 1391 1389 1388 1388
1555 1554 1553 1552 1550 1549 1549 1548 1548 1547 1546 1545 1543 1541 1538 1535 1531 1527 1523 1518 1513 1506 1499 1492 1486 1479 1472 1465 1459 1451 1443 1435 1428 1420 1413 1407 1401 1395 1391 1387 1384 1383 1382 1382
1552 1551 1550 1549 1548 1548 1547 1547 1547 1547 1546 1544 1543 1541 1538 1535 1531 1527 1522 1517 1513 1506 1499 1493 1486 1478 1471 1466 1459 1451 1443 1434 1427 1419 1411 1404 1397 1391 1385 1381 1378 1377 1376 1377
1549 1548 1547 1547 1546 1546 1546 1546 1546 1546 1545 1544 1543 1541 1538 1535 1532 1528 1524 1518 1512 1505 1499 1493 1486 1479 1474 1467 1459 1451 1443 1435 1427 1419 1411 1403 1395 1388 1382 1377 1374 1372 1372 1373
1546 1545 1545 1545 1545 1545 1545 1546 1546 1546 1545 1544 1543 1541 1539 1536 1532 1528 1523 1519 1512 1506 1501 1494 1488 1481 1475 1468 1460 1452 1444 1436 1429 1421 1413 1405 1396 1388 1382 1376 1373 1371 1371 1372
1542 1542 1542 1542 1543 1543 1544 1545 1545 1545 1545 1544 1543 1541 1539 1537 1534 1530 1526 1520 1514 1508 1502 1496 1490 1483 1476 1469 1461 1453 1446 1438 1432 1425 1417 1408 1400 1393 1386 1381 1377 1375 1375 1375
1539 1539 1539 1540 1541 1542 1543 1544 1544 1545 1544 1544 1543 1542 1540 1538 1535 1531 1527 1522 1516 1510 1504 1498 1492 1485 1478 1471 1463 1456 1449 1442 1436 1429 1421 1414 1406 1399 1393 1388 1384 1382 1380 1380
1536 1536 1537 1539 1540 1541 1542 1543 1544 1544 1544 1544 1543 1542 1541 1539 1536 1533 1528 1523 1518 1512 1506 1499 1493 1486 1480 1473 1466 1459 1452 1446 1439 1432 1426 1420 1413 1407 1401 1396 1392 1389 1387 1385
1532 1533 1535 1536 1538 1539 1541 1542 1543 1544 1544 1544 1544 1543 1542 1540 1537 1533 1529 1524 1519 1513 1507 1501 1495 1489 1482 1476 1470 1463 1456 1450 1443 1437 1431 1425 1419 1413 1408 1404 1399 1396 1393 1391